User: anonymous
Location: Pella
(41.4080°N, 92.9160°W)
Time: 00:21:47
(UTC-05:00)
Language:

Iridium 91 - Orbit

View from above orbital plane
View from above orbital plane
View from above satellite
View from above satellite

Ground track
Ground track

The orbit data is extracted from the following two-line orbital elements,

1 27372U 02005A   14211.50141880  .00000035  00000-0  55173-5 0  4230
2 27372 086.3990 007.6916 0003587 099.5034 320.8464 14.34217453660744
Epoch (UTC): 30 July 2014 12:02:02
Eccentricity: 0.0003587
inclination: 86.3990°
perigee height: 775 km
apogee height: 780 km
right ascension of ascending node: 7.6916°
argument of perigee: 99.5034°
revolutions per day: 14.34217453
mean anomaly at epoch: 320.8464°
orbit number at epoch: 66074

The dashed part of the orbit path shows where the satellite is in the earth's shadow,  

DLR